轨道通信卫星FM16星 (ORBCOMM FM16)

导读

ORBCOMM FM 16是一枚低轨通信卫星,由轨道通信公司(ORBCOMM)主导,于1998年8月2日发射升空,运行在倾角约45度、高度约790千米的近地轨道中,主要为用户提供全球范围的机器对机器(M2M)数据通信服务,支持物联网、船舶跟踪等业务。该卫星在2019年12月22日发生解体,产生34枚轨道碎片,解体时未发生与其他在轨物体的碰撞事件,此次解体也引发了业界对空间碎片问题的进一步关注。

基本信息
目录编号:
25417
目录名称:
ORBCOMM FM 16
国际标识:
1998-046E
轨道中心:
EARTH
卫星名称:
轨道通信卫星FM16星
卫星全名:
轨道通信卫星FM16星 (ORBCOMM FM16)
卫星状态:
在轨 (已飞行10267 天)
发射日期:
1998-08-02 UTC
国别 :
(ORB)
星等 :
--
该卫星已列入 空间交会检测服务 Space Conjunction Data Service (SCDS) ,当前飞行风险评估等级: 无高风险
轨道信息
数据来源 国际轨道数据 AOE轨道数据
星历时间 2026-09-11T14:01:15+0800
9小时前
查看轨道信息
2026-09-10T05:00:00+0800
1天前
查看轨道信息
半长轴 7135.966km 7135.981km
偏心率 0.0005153 0.0005133
轨道倾角 44.992° 44.992°
近地点辐角 24.617° 16.398°
升交点赤经 188.301° 194.851°
平近点角 335.493° 43.255°
近地点 754.151km 754.181km
远地点 761.507km 761.507km
周期 99.986分钟 99.986分钟
每日圈数 14.402029 14.401984
详细信息
固有亮度:
8
最大亮度:
6.9
平衡模式:
三轴稳定
覆盖范围:
全球
运营商:
轨道通信公司
运营商所在国:
美国
制造商(研发单位):
轨道ATK公司
制造商所在国:
美国
使用方式:
暂无
卫星简介
轨道通信FM(Orbcomm FM)是一系列低地球轨道通信卫星,由美国卫星通信公司 Orbcomm运营。 截至2015年12月,已有63颗此类卫星绕地球运行。该卫星已退役。
2D轨道图
3D轨道图
轨道高度分析图
轨道倾角分析图
轨道综合分析图
查看轨道综合分析图
与全量物体交会距离演化趋势
与全量物体交会风险概率演化趋势